Regional Weather Roundup
Issued by NWS Upton, NY

Current Version | Previous Version | Text Only | Print | Product List | Glossary Off
Versions: 1 2 3 4 5 6 7 8 9 10 11 12 13 14 15 16 17 18 19 20 21 22 23 24 25 26 27 28 29 30 31 32 33 34 35 36 37 38 39 40 41 42 43 44 45 46 47 48 49 50
000 ASUS41 KOKX 210709 RWROKX REGIONAL WEATHER ROUNDUP NATIONAL WEATHER SERVICE NEW YORK NY 300 AM EDT FRI JUL 21 2017 NOTE: "FAIR" INDICATES FEW OR NO CLOUDS BELOW 12,000 FEET WITH NO SIGNIFICANT WEATHER AND/OR OBSTRUCTIONS TO VISIBILITY. NYZ071-072-176-178-NJZ106-104-210800- NEW YORK CITY METRO AREA CITY SKY/WX TMP DP RH WIND PRES REMARKS Central Park CLOUDY 77 68 73 CALM 29.91F Bronx Bot Gard N/A 77 66 69 W7 29.90S LaGuardia APRT MOCLDY 79 70 74 NW7 29.87S Kennedy INTL CLOUDY 80 70 71 W7 29.88F Breezy Point N/A 73 N/A N/A W5 N/A Newark/Liberty CLOUDY 76 69 79 W6 29.88F Teterboro MOCLDY 76 68 76 NW6 29.87F $$ NYZ177-179-078>081-210800- LONG ISLAND NEW YORK CITY SKY/WX TMP DP RH WIND PRES REMARKS Jones Beach N/A 77 N/A N/A W7 N/A Matinecock PT N/A 75 N/A N/A SW7 N/A Farmingdale PTCLDY 78 67 68 W3 29.88S MacArthur/ISP CLOUDY 78 67 68 NW3 29.87S Shirley MOCLDY 77 68 73 W3 29.88R Mt Sinai Harb N/A N/A N/A N/A W1 N/A Westhampton MOCLDY 75 67 76 W5 29.89S East Hampton FAIR 76 67 76 NW5 29.85S Montauk N/A 76 70 82 W7 29.86F $$ NYZ052-065-067-210800- HUDSON VALLEY CITY SKY/WX TMP DP RH WIND PRES REMARKS White Plains PTCLDY 75 66 73 NW9 29.88F Larchmont Harb N/A 77 N/A N/A W7 N/A Croton O-T Hud N/A 75 N/A N/A MISG N/A Newburgh MOCLDY 70 70 100 W8 29.91F Montgomery FOG 68 67 96 CALM 29.90F VSB 1/2 Poughkeepsie CLEAR 69 67 93 CALM 29.87F Albany PTCLDY 69 61 75 CALM 29.88S $$ NJZ001-105-106-008-010-013-015-019>022-104-210800- NEW JERSEY CITY SKY/WX TMP DP RH WIND PRES REMARKS Newark/Liberty CLOUDY 76 69 79 W6 29.88F Teterboro MOCLDY 76 68 76 NW6 29.87F Caldwell CLOUDY 72 69 90 SW3 29.90F Somerville FOG 70 70 100 CALM 29.88F VSB 3/4 Linden PTSUNNY 74 70 89 NW5 29.89F Perth Amboy N/A 73 N/A N/A NW7 N/A Sussex PTCLDY 67 67 100 CALM 29.91F FOG Andover N/A 69 68 96 CALM 29.91F Trenton PTCLDY 74 71 91 CALM 29.88F Millville PTCLDY 79 78 97 SW6 29.89F Atlantic City CLOUDY 82 76 81 SW7 29.89F Wrightstown MOCLDY 73 69 87 CALM 29.86F Toms River PTCLDY 73 68 84 CALM 29.89F Belmar CLOUDY 73 71 93 SW3 29.89F $$ PAZ047>061-062-071-210800- EASTERN PENNSYLVANIA CITY SKY/WX TMP DP RH WIND PRES REMARKS Philadelphia MOCLDY 82 70 66 SW5 29.89F Allentown CLOUDY 71 68 90 CALM 29.91F Scranton FOG 68 68 100 CALM 29.94F VSB 3/4 $$ CTZ002-004>006-009-010-012-RIZ004-006-007-MAZ004-011-015-210800- SOUTHERN NEW ENGLAND IN CT CITY SKY/WX TMP DP RH WIND PRES REMARKS Bradley INTL PTCLDY 69 68 96 SW3 29.86S Hartford PTCLDY 74 67 78 W3 29.85S Danbury CLEAR 69 67 93 W3 29.90F Wtrbury/Oxford CLEAR 70 63 78 CALM 29.89F Bridgeport CLEAR 76 66 71 N5 29.87S Meriden CLEAR 68 66 93 CALM 29.87S New Haven MOCLDY 76 66 71 CALM 29.87F Chester FAIR 73 66 78 CALM 29.88S Groton PTCLDY 76 68 76 W8 29.84S Wilimantic PTCLDY 71 69 93 CALM 29.86S IN RI CITY SKY/WX TMP DP RH WIND PRES REMARKS Providence CLEAR 74 72 93 W6 29.83F Block Island CLEAR 73 70 90 W8 29.85S Westerly CLEAR 74 72 93 CALM 29.85S FOG IN MA CITY SKY/WX TMP DP RH WIND PRES REMARKS Boston CLEAR 76 65 68 W5 29.81S Worcester CLEAR 69 58 67 W12 29.87F Westfield CLEAR 66 65 96 CALM 29.85F Provincetown PTCLDY 69 67 93 SW5 29.81S Nantucket FOG 69 69 100 CALM 29.82F VSB 1/4 $$ ANZ330-335-338-340-345-350-353-355-210800- COASTAL MARINE OBSERVATIONS STATION/POSITION TIME SKY/WX TEMP WIND PRES VSBY WAVE AIR SEA DIR/SP/G HT/PER (UTC) (F) (DEG/KT/KT) (MB) (MI) (FT/S) NY HARB ENTRANCE 0550 75 74 270/ 10/ 12 1011.5 3/ 5 20 S FIRE ISLAND 0550 76 75 260/ 10/ 12 1011.2 3/ 6 GREAT SOUTH BAY 0615 80 82 290/ 6/ 8 N/A 23 SSW MONTAUK P 0550 77 75 1011.4 4/ 5 15 E BARNEGAT LI 0630 77 N/A 3/ 5 HUDSON CANYON 0550 80 79 250/ 14/ 16 1011.6 4/ 5 KINGS POINT 0630 77 73 330/ 5/ 6 1011.7 EXECUTION ROCKS 0645 77 260/ 8/ 10 N/A CENTRAL LI SOUND 0615 77 310/ 6/ 10 N/A 1 EASTERN LI SOUND NOT AVBL ROBBINS REEF 0630 270/ 8/ 9 1012.7 $$ >>>>>>>>>>>>>>>>>>>>>>>>>>>> KEY <<<<<<<<<<<<<<<<<<<<<<<<<<< > < > SKY/WX - Sky Condition/Present Weather < > TMP - Temperature in Fahrenheit < > DP - Dew Point in Fahrenheit < > RH - Relative Humidity in Percent < > WIND - Direction (from) and Speed in MPH < > PRES - Mean Sea Level Pressure (inches of Hg) < > WCI - Wind Chill Index < > VSB - VISIBILITY IN MILES < > HX - HEAT INDEX < > TC - TEMPERATURE IN CELSIUS < > VRB - VARIABLE WIND DIRECTION < > < >>>>>>>>>>>>>>>>>>>>>>>>>>>> KEY <<<<<<<<<<<<<<<<<<<<<<<<<<<

USA.gov is the U.S. government's official web portal to all federal, state and local government web resources and services.